Flag Weather past 2 weeks in Glennallen, Alaska, U.S.A.

Now
0 °F

Overcast.


Feels Like: -10 °F
Forecast: -18 / -9 °F
Wind: 5 mph from North

Location: Gulkana Airport

Current Time: Nov 27, 2014 at 4:44:34 PM

Latest Report: Nov 27, 2014 at 3:53 PM


Visibility: 10 mi

Pressure: 30.49 "Hg

Humidity: 75%

Dew point: -6 °F

Location of GlennallenLocation

Historic Weather in Glennallen — Graph

°F

Glennallen temperature yesterday

Maximum temperature yesterday: 12 °F (at 12:53 PM)
Minimum temperature yesterday: -9 °F (at 10:53 PM)
Average temperature yesterday: 3 °F

Past Weeks' High & Low Weather Summary

 TemperatureHumidityPressure
High32 °F (Nov 12, 3:53 PM)92% (Nov 12, 8:53 PM)30.59 "Hg (Nov 12, 8:53 PM)
Low-12 °F (Nov 27, 12:53 AM)66% (Nov 12, 3:53 PM)29.22 "Hg (Nov 21, 3:53 PM)
Average5 °F80%30.09 "Hg
* Reported Nov 12 3:53 PM — Nov 27 3:53 PM, Glennallen, Weather by CustomWeather, © 2014

Note: Actual official high and low records may vary slightly from our data, if they occured in-between our weather recording intervals... More about our weather records

Advertising

Glennallen weather history for previous 24 hours

 ConditionsComfort  
Time TempWeatherWind HumidityBarometerVisibility
3:53 PM
Nov 27
0 °FOvercast.5 mph75%30.49 "Hg10 mi
2:53 PM0 °FOvercast.No wind75%30.51 "Hg10 mi
1:53 PM-1 °FOvercast.5 mph75%30.53 "Hg9 mi
12:53 PM-1 °FOvercast.5 mph75%30.53 "Hg10 mi
11:53 AM-1 °FLow clouds.No wind75%30.53 "Hg10 mi
11:03 AM-1 °FMostly cloudy.7 mph71%30.32 "Hg10 mi
10:53 AM-1 °FMore clouds than sun.5 mph75%30.53 "Hg10 mi
9:53 AM0 °FOvercast.No wind75%30.53 "Hg10 mi
8:53 AM0 °FOvercast.3 mph75%30.53 "Hg10 mi
7:53 AM-1 °FOvercast.No wind75%30.53 "Hg10 mi
6:53 AM-3 °FClear.3 mph75%30.53 "Hg10 mi
5:53 AM2 °FOvercast.No wind80%30.52 "Hg10 mi
4:53 AM2 °FOvercast.5 mph80%30.51 "Hg10 mi
3:53 AM0 °FOvercast.8 mph75%30.51 "Hg10 mi
2:53 AM-11 °FOvercast.No wind74%30.53 "Hg10 mi
1:53 AM-12 °FClear.No wind74%30.53 "Hg10 mi
12:53 AM-12 °FClear.No wind77%30.53 "Hg10 mi
11:53 PM
Nov 26
N/AClear.No windN/A30.53 "Hg10 mi
10:53 PM-9 °FClear.5 mph78%30.53 "Hg10 mi
9:53 PM-8 °FClear.3 mph78%30.52 "Hg10 mi
8:53 PM-5 °FClear.3 mphN/A30.52 "Hg10 mi
7:53 PM-4 °FClear.6 mph79%30.52 "Hg10 mi
6:53 PM-3 °FClear.7 mph75%30.52 "Hg10 mi
5:53 PM-2 °FClear.No wind75%30.53 "Hg10 mi
4:53 PM1 °FClear.No wind79%30.52 "Hg10 mi
Weather by CustomWeather, © 2014

See weather overviewHow to use our weather pages